SCP
0 0 0 0 0 0 0 0 0 0 0 0 0 0 0 0 0 0 0 0 0 0 0 0 0 0 0 0 0 0 -0 0 0 0 0 0 0 0 0 0 0 0 0 0 0 0 0
0 0 0 0 0 0 0 0 0 0 0 0 0 0 0 0 0 0 0 0 0 0 0 0 0 0 0 0 0 0 -0 -0 0 0 0 0 0 0 0 0 0 0 0 0 0 0 0
0 0 0 0 0 0 0 0 0 0 0 0 0 0 0 0 0 0 0 0 0 0 0 0 0 0 0 0 0 0 0 0 0 0 0 0 0 0 0 0 0 0 0 0 0 0 0
0 0 0 0 0 0 0 0 0 0 0 0 0 0 0 0 0 0 0 0 0 0 0 0 0 0 0 0 0 0 0 0 0 0 0 0 0 0 0 0 0 0 0 0 0 0 0
0 0 0 0 0 0 0 0 0 0 0 0 0 0 0 0 0 0 0 -0 0 0 0 0 0 0 0 0 0 0 0 0 0 0 0 0 0 0 0 0 0 0 0 0 0 0 0
0 0 0 0 0 0 0 0 0 0 0 0 0 0 0 0 0 0 0 -0 0 0 0 0 0 0 0 0 0 0 0 -0 0 0 0 0 0 0 0 0 0 0 0 0 0 0 0
0 0 0 0 0 0 0 0 0 0 0 0 0 0 0 0 0 0 0 0 0 0 0 0 0 0 0 0 0 0 0 0 0 0 0 0 0 0 0 0 0 0 0 0 0 0 0
0 0 0 0 0 0 0 0 0 0 0 0 0 0 0 0 0 0 0 0 0 0 -0 0 0 0 0 0 0 0 0 0 0 0 0 0 0 0 0 -0 -0 0 0 0 0 0 0
0 0 0 0 0 0 0 0 0 0 0 0 0 0 0 0 0 0 0 0 0 0 0 0 0 0 0 0 0 0 0 0 0 0 0 0 0 0 0 0 -0 0 0 0 0 0 0
0 0 0 0 0 0 0 0 0 0 0 0 0 0 0 0 0 0 0 0 0 0 0 0 0 0 0 0 0 0 0 0 0 0 0 0 0 0 0 0 -0 0 0 0 0 0 0
0 0 0 0 0 0 0 0 0 0 0 0 0 0 0 0 0 0 0 0 0 0 0 0 0 0 0 0 0 0 0 0 -0 0 0 0 0 0 0 -0 -0 -0 0 0 0 0 0
0 0 0 0 0 0 0 0 0 0 0 0 0 0 0 0 0 0 0 0 0 0 0 0 0 0 0 0 0 0 0 -0 -0 0 -0 0 -0 0 0 -0 -0 0 0 0 0 0 0
0 0 0 0 0 0 0 0 0 0 0 0 0 0 0 0 0 0 0 0 0 0 0 0 0 0 0 0 0 -0 0 -0 -0 -0 -0 -0 -0 0 0 -0 -0 0 0 0 0 0 0
0 0 0 0 0 0 0 0 0 0 0 0 -0 -0 0 0 0 0 0 0 0 0 -0 0 0 -0 0 0 -0 -0 0 0 -0 0 0 0 0 0 0 0 0 0 0 0 0 0 0
0 0 0 0 0 0 0 0 0 0 0 0 0 0 0 0 0 0 0 0 0 -0 0 0 -0 0 0 0 -0 -0 -0 -0 0 -0 -0 0 0 0 0 0 0 0 0 0 0 0 0
0 0 0 0 0 0 0 0 0 0 0 0 0 0 0 0 0 0 0 0 0 0 0 0 0 0 0 -0 0 -0 0 0 0 -0 0 0 0 0 0 0 0 0 0 0 0 0 0
0 0 0 0 0 0 0 0 0 0 0 0 0 0 0 0 0 0 0 0 0 0 0 0 0 0 0 0 0 -0 0 -0 0 0 0 0 0 0 0 0 0 0 0 0 0 0 -0
0 0 0 0 0 0 0 0 0 0 0 0 0 0 0 0 0 0 0 0 0 0 0 0 0 0 0 0 0 0 0 0 -0 0 0 0 0 0 0 0 0 0 0 0 0 0 0
0 0 0 0 0 0 0 0 0 0 0 0 0 0 0 0 0 0 0 0 0 0 0 0 0 0 0 0 0 0 0 -0 -0 0 0 0 0 0 0 0 0 0 0 0 0 0 0
0 0 0 0 0 0 0 0 0 0 0 0 0 0 0 0 0 0 0 0 0 0 0 0 0 0 0 0 0 0 -0 0 -0 0 0 0 0 0 0 0 0 0 0 0 0 0 0
0 0 0 0 0 0 0 0 -0 0 0 0 0 0 0 0 0 0 0 0 0 0 0 0 -0 -0 -0 0 0 0 0 0 -0 -0 0 0 0 0 0 0 0 0 0 0 0 0 0
0 0 0 0 0 0 0 0 -0 0 0 0 0 0 0 0 0 0 0 0 0 0 0 0 -0 0 0 0 0 0 0 0 0 -0 -0 0 0 0 0 0 0 0 -0 -0 0 0 0
0 0 0 0 0 0 0 -0 -0 0 0 0 0 0 0 0 0 0 0 0 0 0 0 0 -0 -0 -0 0 0 0 0 -0 0 0 -0 0 0 0 0 0 0 0 0 0 0 0 0
0 0 0 0 0 0 0 0 0 0 0 0 0 0 0 0 0 0 0 0 0 0 0 0 0 0 0 0 -0 -0 -0 0 0 0 0 0 0 0 0 0 0 0 0 0 0 0 0
0 0 0 0 0 0 0 0 0 0 0 0 0 0 0 0 0 0 0 0 0 0 0 0 0 0 0 0 -0 0 0 0 0 0 -0 -0 0 0 0 0 0 0 0 0 0 0 0
0 0 0 0 0 0 0 0 0 0 0 0 0 0 0 0 0 0 0 0 0 0 0 0 -0 -0 -0 0 0 0 0 0 0 0 0 0 0 0 0 0 0 0 0 0 0 0 0
0 0 0 0 0 0 0 0 0 0 0 0 0 0 0 0 0 0 0 0 0 0 0 0 0 0 0 -0 -0 0 -0 0 0 0 0 0 0 0 0 0 0 0 0 0 0 0 0
0 0 0 0 0 0 0 0 0 0 0 0 0 0 0 0 0 0 0 0 0 0 0 0 0 0 0 0 -0 -0 -0 -0 0 0 0 0 0 0 0 0 0 0 0 0 0 0 0
0 0 0 0 0 0 0 0 0 0 0 0 0 0 0 0 0 0 0 0 0 0 0 0 0 0 0 0 -0 -0 -0 -0 -0 0 0 0 0 0 0 0 0 0 0 0 0 0 0
Wind_Speed_500mb
17 20 20 18 16 19 23 30 29 28 33 40 42 38 34 31 29 27 25 26 26 25 21 19 17 15 23 20 42 18 15 6 4 5 25 35 47 34 24 30 32 28 15 37 37 24 16
19 21 21 19 17 20 25 32 33 36 36 39 35 35 35 34 33 32 29 29 26 24 22 19 17 16 24 26 33 22 20 30 39 26 17 31 23 41 42 22 45 32 29 13 28 20 16
19 21 20 20 23 25 28 30 33 34 36 33 37 41 42 41 35 33 30 28 25 22 20 19 19 18 39 54 37 34 34 36 23 45 39 33 27 35 25 21 37 33 25 29 34 14 6
21 19 23 25 28 27 30 32 29 32 30 37 40 41 41 36 30 29 26 25 21 20 21 23 20 24 32 37 35 50 43 55 43 39 34 32 39 41 39 40 26 26 23 26 37 39 22
19 24 27 28 28 29 32 28 27 23 30 35 35 33 29 19 16 19 22 19 17 23 26 21 23 26 22 27 29 17 16 32 40 54 45 37 32 30 26 26 20 33 22 52 36 61 35
26 29 28 25 25 26 30 26 19 21 28 29 27 25 21 13 10 13 16 18 9 15 11 18 28 15 37 29 21 16 16 21 25 35 27 38 29 13 21 24 29 28 48 40 45 36 51
32 32 27 26 23 26 27 22 13 19 23 22 23 21 17 13 11 13 16 7 8 6 12 22 24 35 38 43 46 50 38 17 30 27 23 29 21 32 49 38 39 28 32 48 28 24 41
33 34 31 26 25 25 24 17 10 16 18 17 18 18 17 14 12 9 14 8 9 17 24 40 58 72 71 61 30 30 23 17 24 29 30 10 41 46 32 28 39 51 36 36 13 28 35
33 34 31 26 28 25 21 16 12 13 14 14 14 14 15 15 6 8 15 13 16 32 10 20 20 23 17 12 18 27 24 28 15 29 39 38 20 33 33 37 33 46 33 33 18 21 20
33 33 34 30 27 24 20 16 14 12 13 13 12 13 16 16 3 13 11 10 32 25 6 10 7 6 8 15 14 33 27 22 15 36 20 27 32 25 28 34 34 26 28 27 29 29 20
37 36 34 31 30 26 19 15 14 13 12 12 12 15 14 15 13 6 12 20 28 2 8 6 7 10 16 14 24 6 40 23 12 23 12 16 24 35 29 41 36 30 29 27 22 26 11
40 38 38 35 32 25 19 15 14 13 12 14 15 17 19 17 16 12 18 23 4 2 12 14 9 11 13 15 5 8 20 22 14 11 12 17 5 28 23 21 48 31 29 9 17 19 17
40 37 34 31 26 22 19 16 15 13 12 14 16 16 21 16 12 15 20 2 3 3 8 18 11 18 19 10 7 6 15 16 9 10 10 11 25 11 25 33 30 38 26 6 10 11 11
40 37 30 26 24 21 19 15 15 13 11 14 16 18 18 9 8 15 2 8 6 8 9 7 14 32 9 7 7 6 3 11 12 5 7 17 15 28 13 22 27 46 26 10 12 12 6
40 37 30 28 26 23 20 18 15 10 11 13 17 16 8 7 17 8 2 8 11 8 5 13 24 9 7 6 8 7 5 4 5 15 8 12 2 7 2 4 8 19 10 8 10 5 6
39 34 32 30 27 25 23 16 13 9 8 13 15 7 8 4 12 5 7 5 6 8 5 2 6 6 9 16 13 12 13 8 6 3 5 5 9 8 11 9 6 4 12 8 4 11 8
41 37 36 32 28 27 22 18 14 10 6 11 13 4 9 12 3 3 6 8 8 15 13 6 5 9 12 12 12 10 15 8 19 14 13 7 4 4 1 2 8 7 8 6 9 3 6
44 40 40 34 30 28 23 19 14 9 7 8 7 3 5 1 8 2 3 5 6 6 10 7 8 8 8 10 9 8 11 13 37 17 10 11 6 7 6 2 7 6 4 8 12 11 3
48 43 42 36 33 31 25 21 17 12 8 8 5 5 3 9 5 2 3 7 5 7 5 2 6 8 4 8 10 11 10 21 33 18 14 10 5 5 3 6 6 2 5 5 8 4 8
54 48 46 40 36 33 27 23 20 16 10 5 6 3 3 5 8 12 6 5 5 8 6 6 6 12 4 5 5 11 16 10 25 20 26 8 4 3 4 7 3 5 8 3 4 4 9
56 52 49 43 40 36 30 28 23 19 12 7 5 2 5 2 5 4 6 5 1 5 5 16 2 15 14 7 8 12 11 12 9 25 13 7 5 5 7 7 4 3 8 12 6 4 4
61 56 52 48 44 40 34 30 26 23 17 12 7 12 8 5 4 2 3 5 3 5 3 5 6 9 10 6 9 9 13 9 6 11 10 9 3 4 7 9 9 5 8 13 10 3 7
64 59 56 51 47 44 38 32 30 27 23 11 12 16 8 2 2 6 6 7 2 4 3 5 9 5 10 8 20 28 24 28 11 12 11 8 5 6 5 7 7 8 5 1 5 3 1
64 60 58 54 52 48 42 34 33 30 27 18 19 18 9 5 5 7 4 3 2 2 4 6 5 3 6 35 23 11 15 15 17 16 18 9 6 5 2 6 7 5 6 2 7 12 12
73 67 63 59 55 52 45 38 33 31 29 23 24 14 11 5 4 1 3 2 5 7 3 6 3 9 26 15 6 10 8 11 10 9 14 10 4 5 5 3 2 5 9 6 4 6 8
78 72 68 63 59 56 49 42 36 34 31 27 24 19 9 20 11 8 8 6 5 2 11 7 6 11 14 5 7 5 1 6 11 19 10 6 8 3 5 7 5 1 2 6 5 7 7
83 77 72 66 63 58 52 47 40 37 34 31 28 23 12 10 13 13 4 7 6 3 3 8 12 11 15 6 7 6 5 3 5 6 9 7 6 6 5 3 7 6 10 3 9 2 4
87 80 78 70 67 62 56 49 44 40 36 35 29 28 17 10 19 14 11 5 6 4 6 3 4 9 8 8 5 3 2 5 6 6 0 2 4 3 5 8 4 15 9 8 2 3 5
91 85 82 75 70 67 60 53 48 43 39 35 32 32 22 10 14 17 13 12 7 7 4 5 5 2 5 5 3 4 4 3 4 5 6 3 6 4 9 8 4 9 8 5 4 3 2
Wind_Direction_500mb
272 284 289 302 309 320 313 316 321 312 305 308 314 316 315 311 307 301 294 295 298 303 299 290 285 282 273 253 250 230 225 332 252 253 231 231 246 255 269 205 206 223 184 218 224 279 297
274 279 285 296 294 295 299 310 313 312 313 318 320 319 315 307 301 298 298 298 301 299 295 288 276 263 266 259 281 284 247 249 242 228 216 221 231 249 292 251 199 190 219 196 207 248 296
271 280 285 290 298 300 304 311 313 314 320 325 323 315 307 299 294 292 292 295 295 295 293 281 272 262 260 243 265 272 270 270 257 231 229 225 243 248 291 266 245 196 202 230 243 251 271
265 268 279 290 300 301 306 312 316 322 332 330 318 312 305 296 290 287 291 293 299 295 286 276 276 265 259 267 274 277 271 252 241 224 232 227 228 251 257 276 319 217 200 209 218 226 245
259 259 272 289 295 299 308 315 322 333 336 325 328 333 332 314 299 295 297 305 306 286 277 283 272 242 261 263 258 284 237 261 246 236 241 250 241 227 249 236 259 201 209 210 210 196 207
255 267 276 286 294 301 310 316 326 346 328 337 346 350 355 354 325 314 321 323 290 285 266 258 247 258 242 243 246 218 333 265 253 245 252 217 224 220 223 215 222 212 209 205 205 193 199
261 268 270 283 287 305 313 316 322 337 334 346 358 3 8 13 2 352 350 25 0 287 227 231 244 226 274 277 282 267 267 281 218 202 204 192 210 218 220 221 236 278 240 216 214 183 200
254 263 266 277 283 301 309 306 303 323 330 345 356 356 359 359 355 18 21 24 332 312 296 276 265 261 268 278 276 253 267 213 179 213 199 203 216 218 228 231 228 252 271 214 173 191 194
250 259 263 268 278 292 301 291 286 303 321 342 354 350 348 341 334 358 344 318 323 327 286 296 268 256 275 274 248 270 227 206 202 204 199 208 216 211 216 231 226 248 255 210 156 186 201
249 245 256 266 274 286 290 282 280 294 312 329 343 343 345 350 26 313 317 308 326 320 286 279 238 258 326 315 261 260 223 206 217 208 208 220 220 195 213 237 205 251 246 199 175 159 205
246 248 254 261 272 278 273 267 266 280 301 315 326 334 338 343 332 316 298 316 322 111 351 264 282 292 305 245 298 248 209 199 230 166 161 211 193 199 222 223 203 241 220 216 180 178 135
244 248 254 260 262 262 261 256 251 265 290 302 313 322 320 318 307 298 320 330 278 23 261 329 305 331 309 279 239 277 188 207 202 188 246 218 132 200 225 239 207 231 167 164 190 193 219
237 243 252 255 250 249 247 248 246 259 283 305 311 308 304 296 294 323 323 76 9 182 346 312 327 324 310 277 294 250 182 176 210 186 185 177 215 248 236 201 192 221 190 146 190 186 216
232 237 241 239 235 242 236 243 242 253 286 306 309 303 296 268 314 331 265 56 46 242 268 340 317 312 276 283 244 242 257 199 203 130 161 202 220 194 220 186 185 206 183 163 172 184 157
233 231 233 231 229 234 228 234 239 256 285 305 317 304 244 198 337 336 248 60 197 232 265 313 314 299 297 304 295 328 320 280 278 189 234 169 140 275 64 49 153 159 206 127 89 9 99
223 224 225 224 225 224 225 231 233 247 280 314 320 301 193 260 339 157 82 169 232 218 264 325 291 341 306 319 324 339 341 343 340 253 253 243 102 14 348 50 4 173 122 165 119 166 188
221 219 219 223 220 221 221 225 227 231 263 300 306 217 182 328 144 150 136 222 244 252 220 218 288 289 293 303 307 318 351 1 354 329 355 330 40 49 212 1 164 148 153 80 88 155 201
217 217 215 219 218 217 218 221 224 221 236 275 259 51 189 316 62 75 132 204 283 304 208 253 258 277 280 296 308 315 340 344 340 328 354 3 69 73 68 345 354 345 162 141 194 188 186
214 215 214 215 214 214 214 214 214 216 211 245 229 177 209 187 128 175 275 287 272 345 301 248 281 266 205 297 316 1 347 345 354 16 4 358 32 95 54 30 36 132 311 78 94 73 183
213 213 213 212 210 210 209 210 210 209 203 241 192 63 100 103 94 127 152 293 305 283 281 331 347 317 326 308 313 333 343 349 354 358 351 358 36 29 102 114 136 174 162 159 91 145 145
212 212 212 209 208 207 206 209 201 207 197 201 200 164 148 227 337 106 170 201 271 6 339 16 327 11 342 325 315 345 345 322 345 358 352 29 49 43 46 55 51 22 165 171 148 76 170
209 207 209 207 206 205 205 204 201 199 195 203 191 144 118 123 121 101 352 270 192 296 25 358 343 323 343 7 345 322 340 358 339 328 353 333 60 20 19 30 56 60 28 179 198 197 268
205 204 206 205 204 204 203 199 200 201 194 204 171 149 149 344 113 102 222 208 207 269 203 93 321 317 328 291 302 289 297 301 294 326 343 360 7 20 315 345 33 39 2 216 110 20 179
208 204 204 203 204 203 201 196 200 198 198 211 186 159 150 235 158 197 200 207 235 287 258 294 358 344 318 317 308 293 278 287 6 4 360 358 8 32 253 4 54 286 19 17 123 46 8
212 209 202 203 202 202 199 196 197 196 196 201 191 179 162 134 186 116 196 235 313 314 315 280 290 321 325 327 31 20 336 359 330 328 353 12 351 9 82 27 284 46 10 17 47 35 4
208 205 201 201 201 200 198 195 196 195 192 191 193 186 169 130 234 144 163 182 195 304 336 276 315 340 2 52 60 104 339 227 318 338 344 5 39 71 38 92 127 334 54 2 319 36 12
206 203 198 199 199 197 198 194 194 191 190 188 195 189 172 120 154 160 172 182 159 144 170 298 340 358 17 40 53 53 335 236 9 338 331 352 3 25 353 65 308 315 317 13 70 224 24
204 201 194 197 196 195 195 192 191 190 191 191 194 189 183 136 157 173 168 163 160 171 138 331 20 347 33 65 83 25 353 349 315 265 166 146 95 344 28 37 342 360 344 76 200 83 87
203 200 193 195 195 192 192 191 189 189 191 189 187 189 182 150 155 169 172 169 157 138 133 39 119 139 49 99 45 52 355 342 327 302 322 331 179 212 169 215 318 360 31 30 84 106 59
Wind_Speed_850mb
17 20 20 18 16 19 23 30 29 28 33 40 42 38 34 31 29 27 25 26 26 25 21 19 17 15 23 20 42 18 15 6 4 5 25 35 47 34 24 30 32 28 15 37 37 24 16
19 21 21 19 17 20 25 32 33 36 36 39 35 35 35 34 33 32 29 29 26 24 22 19 17 16 24 26 33 22 20 30 39 26 17 31 23 41 42 22 45 32 29 13 28 20 16
19 21 20 20 23 25 28 30 33 34 36 33 37 41 42 41 35 33 30 28 25 22 20 19 19 18 39 54 37 34 34 36 23 45 39 33 27 35 25 21 37 33 25 29 34 14 6
21 19 23 25 28 27 30 32 29 32 30 37 40 41 41 36 30 29 26 25 21 20 21 23 20 24 32 37 35 50 43 55 43 39 34 32 39 41 39 40 26 26 23 26 37 39 22
19 24 27 28 28 29 32 28 27 23 30 35 35 33 29 19 16 19 22 19 17 23 26 21 23 26 22 27 29 17 16 32 40 54 45 37 32 30 26 26 20 33 22 52 36 61 35
26 29 28 25 25 26 30 26 19 21 28 29 27 25 21 13 10 13 16 18 9 15 11 18 28 15 37 29 21 16 16 21 25 35 27 38 29 13 21 24 29 28 48 40 45 36 51
32 32 27 26 23 26 27 22 13 19 23 22 23 21 17 13 11 13 16 7 8 6 12 22 24 35 38 43 46 50 38 17 30 27 23 29 21 32 49 38 39 28 32 48 28 24 41
33 34 31 26 25 25 24 17 10 16 18 17 18 18 17 14 12 9 14 8 9 17 24 40 58 72 71 61 30 30 23 17 24 29 30 10 41 46 32 28 39 51 36 36 13 28 35
33 34 31 26 28 25 21 16 12 13 14 14 14 14 15 15 6 8 15 13 16 32 10 20 20 23 17 12 18 27 24 28 15 29 39 38 20 33 33 37 33 46 33 33 18 21 20
33 33 34 30 27 24 20 16 14 12 13 13 12 13 16 16 3 13 11 10 32 25 6 10 7 6 8 15 14 33 27 22 15 36 20 27 32 25 28 34 34 26 28 27 29 29 20
37 36 34 31 30 26 19 15 14 13 12 12 12 15 14 15 13 6 12 20 28 2 8 6 7 10 16 14 24 6 40 23 12 23 12 16 24 35 29 41 36 30 29 27 22 26 11
40 38 38 35 32 25 19 15 14 13 12 14 15 17 19 17 16 12 18 23 4 2 12 14 9 11 13 15 5 8 20 22 14 11 12 17 5 28 23 21 48 31 29 9 17 19 17
40 37 34 31 26 22 19 16 15 13 12 14 16 16 21 16 12 15 20 2 3 3 8 18 11 18 19 10 7 6 15 16 9 10 10 11 25 11 25 33 30 38 26 6 10 11 11
40 37 30 26 24 21 19 15 15 13 11 14 16 18 18 9 8 15 2 8 6 8 9 7 14 32 9 7 7 6 3 11 12 5 7 17 15 28 13 22 27 46 26 10 12 12 6
40 37 30 28 26 23 20 18 15 10 11 13 17 16 8 7 17 8 2 8 11 8 5 13 24 9 7 6 8 7 5 4 5 15 8 12 2 7 2 4 8 19 10 8 10 5 6
39 34 32 30 27 25 23 16 13 9 8 13 15 7 8 4 12 5 7 5 6 8 5 2 6 6 9 16 13 12 13 8 6 3 5 5 9 8 11 9 6 4 12 8 4 11 8
41 37 36 32 28 27 22 18 14 10 6 11 13 4 9 12 3 3 6 8 8 15 13 6 5 9 12 12 12 10 15 8 19 14 13 7 4 4 1 2 8 7 8 6 9 3 6
44 40 40 34 30 28 23 19 14 9 7 8 7 3 5 1 8 2 3 5 6 6 10 7 8 8 8 10 9 8 11 13 37 17 10 11 6 7 6 2 7 6 4 8 12 11 3
48 43 42 36 33 31 25 21 17 12 8 8 5 5 3 9 5 2 3 7 5 7 5 2 6 8 4 8 10 11 10 21 33 18 14 10 5 5 3 6 6 2 5 5 8 4 8
54 48 46 40 36 33 27 23 20 16 10 5 6 3 3 5 8 12 6 5 5 8 6 6 6 12 4 5 5 11 16 10 25 20 26 8 4 3 4 7 3 5 8 3 4 4 9
56 52 49 43 40 36 30 28 23 19 12 7 5 2 5 2 5 4 6 5 1 5 5 16 2 15 14 7 8 12 11 12 9 25 13 7 5 5 7 7 4 3 8 12 6 4 4
61 56 52 48 44 40 34 30 26 23 17 12 7 12 8 5 4 2 3 5 3 5 3 5 6 9 10 6 9 9 13 9 6 11 10 9 3 4 7 9 9 5 8 13 10 3 7
64 59 56 51 47 44 38 32 30 27 23 11 12 16 8 2 2 6 6 7 2 4 3 5 9 5 10 8 20 28 24 28 11 12 11 8 5 6 5 7 7 8 5 1 5 3 1
64 60 58 54 52 48 42 34 33 30 27 18 19 18 9 5 5 7 4 3 2 2 4 6 5 3 6 35 23 11 15 15 17 16 18 9 6 5 2 6 7 5 6 2 7 12 12
73 67 63 59 55 52 45 38 33 31 29 23 24 14 11 5 4 1 3 2 5 7 3 6 3 9 26 15 6 10 8 11 10 9 14 10 4 5 5 3 2 5 9 6 4 6 8
78 72 68 63 59 56 49 42 36 34 31 27 24 19 9 20 11 8 8 6 5 2 11 7 6 11 14 5 7 5 1 6 11 19 10 6 8 3 5 7 5 1 2 6 5 7 7
83 77 72 66 63 58 52 47 40 37 34 31 28 23 12 10 13 13 4 7 6 3 3 8 12 11 15 6 7 6 5 3 5 6 9 7 6 6 5 3 7 6 10 3 9 2 4
87 80 78 70 67 62 56 49 44 40 36 35 29 28 17 10 19 14 11 5 6 4 6 3 4 9 8 8 5 3 2 5 6 6 0 2 4 3 5 8 4 15 9 8 2 3 5
91 85 82 75 70 67 60 53 48 43 39 35 32 32 22 10 14 17 13 12 7 7 4 5 5 2 5 5 3 4 4 3 4 5 6 3 6 4 9 8 4 9 8 5 4 3 2
Wind_Direction_850mb
272 284 289 302 309 320 313 316 321 312 305 308 314 316 315 311 307 301 294 295 298 303 299 290 285 282 273 253 250 230 225 332 252 253 231 231 246 255 269 205 206 223 184 218 224 279 297
274 279 285 296 294 295 299 310 313 312 313 318 320 319 315 307 301 298 298 298 301 299 295 288 276 263 266 259 281 284 247 249 242 228 216 221 231 249 292 251 199 190 219 196 207 248 296
271 280 285 290 298 300 304 311 313 314 320 325 323 315 307 299 294 292 292 295 295 295 293 281 272 262 260 243 265 272 270 270 257 231 229 225 243 248 291 266 245 196 202 230 243 251 271
265 268 279 290 300 301 306 312 316 322 332 330 318 312 305 296 290 287 291 293 299 295 286 276 276 265 259 267 274 277 271 252 241 224 232 227 228 251 257 276 319 217 200 209 218 226 245
259 259 272 289 295 299 308 315 322 333 336 325 328 333 332 314 299 295 297 305 306 286 277 283 272 242 261 263 258 284 237 261 246 236 241 250 241 227 249 236 259 201 209 210 210 196 207
255 267 276 286 294 301 310 316 326 346 328 337 346 350 355 354 325 314 321 323 290 285 266 258 247 258 242 243 246 218 333 265 253 245 252 217 224 220 223 215 222 212 209 205 205 193 199
261 268 270 283 287 305 313 316 322 337 334 346 358 3 8 13 2 352 350 25 0 287 227 231 244 226 274 277 282 267 267 281 218 202 204 192 210 218 220 221 236 278 240 216 214 183 200
254 263 266 277 283 301 309 306 303 323 330 345 356 356 359 359 355 18 21 24 332 312 296 276 265 261 268 278 276 253 267 213 179 213 199 203 216 218 228 231 228 252 271 214 173 191 194
250 259 263 268 278 292 301 291 286 303 321 342 354 350 348 341 334 358 344 318 323 327 286 296 268 256 275 274 248 270 227 206 202 204 199 208 216 211 216 231 226 248 255 210 156 186 201
249 245 256 266 274 286 290 282 280 294 312 329 343 343 345 350 26 313 317 308 326 320 286 279 238 258 326 315 261 260 223 206 217 208 208 220 220 195 213 237 205 251 246 199 175 159 205
246 248 254 261 272 278 273 267 266 280 301 315 326 334 338 343 332 316 298 316 322 111 351 264 282 292 305 245 298 248 209 199 230 166 161 211 193 199 222 223 203 241 220 216 180 178 135
244 248 254 260 262 262 261 256 251 265 290 302 313 322 320 318 307 298 320 330 278 23 261 329 305 331 309 279 239 277 188 207 202 188 246 218 132 200 225 239 207 231 167 164 190 193 219
237 243 252 255 250 249 247 248 246 259 283 305 311 308 304 296 294 323 323 76 9 182 346 312 327 324 310 277 294 250 182 176 210 186 185 177 215 248 236 201 192 221 190 146 190 186 216
232 237 241 239 235 242 236 243 242 253 286 306 309 303 296 268 314 331 265 56 46 242 268 340 317 312 276 283 244 242 257 199 203 130 161 202 220 194 220 186 185 206 183 163 172 184 157
233 231 233 231 229 234 228 234 239 256 285 305 317 304 244 198 337 336 248 60 197 232 265 313 314 299 297 304 295 328 320 280 278 189 234 169 140 275 64 49 153 159 206 127 89 9 99
223 224 225 224 225 224 225 231 233 247 280 314 320 301 193 260 339 157 82 169 232 218 264 325 291 341 306 319 324 339 341 343 340 253 253 243 102 14 348 50 4 173 122 165 119 166 188
221 219 219 223 220 221 221 225 227 231 263 300 306 217 182 328 144 150 136 222 244 252 220 218 288 289 293 303 307 318 351 1 354 329 355 330 40 49 212 1 164 148 153 80 88 155 201
217 217 215 219 218 217 218 221 224 221 236 275 259 51 189 316 62 75 132 204 283 304 208 253 258 277 280 296 308 315 340 344 340 328 354 3 69 73 68 345 354 345 162 141 194 188 186
214 215 214 215 214 214 214 214 214 216 211 245 229 177 209 187 128 175 275 287 272 345 301 248 281 266 205 297 316 1 347 345 354 16 4 358 32 95 54 30 36 132 311 78 94 73 183
213 213 213 212 210 210 209 210 210 209 203 241 192 63 100 103 94 127 152 293 305 283 281 331 347 317 326 308 313 333 343 349 354 358 351 358 36 29 102 114 136 174 162 159 91 145 145
212 212 212 209 208 207 206 209 201 207 197 201 200 164 148 227 337 106 170 201 271 6 339 16 327 11 342 325 315 345 345 322 345 358 352 29 49 43 46 55 51 22 165 171 148 76 170
209 207 209 207 206 205 205 204 201 199 195 203 191 144 118 123 121 101 352 270 192 296 25 358 343 323 343 7 345 322 340 358 339 328 353 333 60 20 19 30 56 60 28 179 198 197 268
205 204 206 205 204 204 203 199 200 201 194 204 171 149 149 344 113 102 222 208 207 269 203 93 321 317 328 291 302 289 297 301 294 326 343 360 7 20 315 345 33 39 2 216 110 20 179
208 204 204 203 204 203 201 196 200 198 198 211 186 159 150 235 158 197 200 207 235 287 258 294 358 344 318 317 308 293 278 287 6 4 360 358 8 32 253 4 54 286 19 17 123 46 8
212 209 202 203 202 202 199 196 197 196 196 201 191 179 162 134 186 116 196 235 313 314 315 280 290 321 325 327 31 20 336 359 330 328 353 12 351 9 82 27 284 46 10 17 47 35 4
208 205 201 201 201 200 198 195 196 195 192 191 193 186 169 130 234 144 163 182 195 304 336 276 315 340 2 52 60 104 339 227 318 338 344 5 39 71 38 92 127 334 54 2 319 36 12
206 203 198 199 199 197 198 194 194 191 190 188 195 189 172 120 154 160 172 182 159 144 170 298 340 358 17 40 53 53 335 236 9 338 331 352 3 25 353 65 308 315 317 13 70 224 24
204 201 194 197 196 195 195 192 191 190 191 191 194 189 183 136 157 173 168 163 160 171 138 331 20 347 33 65 83 25 353 349 315 265 166 146 95 344 28 37 342 360 344 76 200 83 87
203 200 193 195 195 192 192 191 189 189 191 189 187 189 182 150 155 169 172 169 157 138 133 39 119 139 49 99 45 52 355 342 327 302 322 331 179 212 169 215 318 360 31 30 84 106 59